RADUGA-1 6 [-]

Last updated on June 24, 2019, 3:40 a.m. UTC

1 26936U 01045A   19174.47029955 -.00000130  00000-0  00000+0 0  9993
2 26936  12.2594  32.6840 0012740 144.0292 212.3007  0.97744946 63644
UTC
Height (km)
Latitude
Longitude
Inclination
Orbital Period
UTC large
Height (km)
Speed (km/s)
/
Latitude / Longitude
Inclination (degrees)
Orbital Period (minutes)
Azimuth
Elevation
Range (km)
Doppler Factor
iOS Compass Heading
iOS Angle

Next 30 passes for location: Hong Kong

Rise time Rise Azimuth (degrees) Set time Set Azimuth (degrees) Duration Max altitude (degrees)

No matching passes for this satellites